DW4988 Weather Reports


time (UTC)temp
C
wind
direction
speed
KPH
gust
KPH
rain 1hr
cm
rain 24hr
cm
rain mn
cm
humidity
%
barometer
mb
20260502163047 21 159 9.7 22.5 0.00 0.00 0.00 21 1021.8
20260502161551 20 121 9.7 19.3 0.00 0.00 0.00 27 1021.7
20260502151545 16 188 9.7 19.3 0.00 0.00 0.00 31 1021.9
20260502123046 7 207 4.8 9.7 0.00 0.00 0.00 62 1021.4
20260502121542 7 207 4.8 9.7 0.00 0.00 0.00 63 1021.4
20260502114601 7 189 3.2 6.4 0.00 0.00 0.00 60 1021.3
20260502113044 7 203 3.2 8.0 0.00 0.00 0.00 56 1021.4
20260502111548 7 204 1.6 6.4 0.00 0.00 0.00 54 1021.3
20260502110043 7 207 3.2 9.7 0.00 0.00 0.00 53 1021.3
20260502104543 7 202 1.6 6.4 0.00 0.00 0.00 53 1021.4
20260502103041 7 193 1.6 8.0 0.00 0.00 0.00 53 1021.3
20260502101559 7 182 1.6 6.4 0.00 0.00 0.00 52 1021.3
20260502100105 7 0 0.0 4.8 0.00 0.00 0.00 52 1021.2
20260502070047 9 211 1.6 6.4 0.00 0.00 0.00 42 1021.3
20260502064611 9 224 1.6 4.8 0.00 0.00 0.00 42 1021.3
20260502063047 9 173 0.0 3.2 0.00 0.00 0.00 40 1021.2
20260502061546 9 206 1.6 4.8 0.00 0.00 0.00 43 1021.2
20260502060047 10 212 1.6 9.7 0.00 0.00 0.00 42 1021.2
20260502054545 10 0 0.0 0.0 0.00 0.00 0.00 41 1021.1
20260502053045 10 0 0.0 0.0 0.00 0.00 0.00 39 1021.0
20260502051541 11 0 0.0 0.0 0.00 0.00 0.00 38 1021.1
20260502050047 11 0 0.0 1.6 0.00 0.00 0.00 38 1021.0
20260502044543 12 0 0.0 3.2 0.00 0.00 0.00 36 1021.1
20260502043111 12 122 1.6 6.4 0.00 0.00 0.00 33 1021.0
20260502041553 12 0 0.0 3.2 0.00 0.00 0.00 32 1021.0
20260502040058 12 281 1.6 4.8 0.00 0.00 0.00 32 1020.8
20260502034546 13 289 1.6 4.8 0.00 0.00 0.00 31 1020.6
20260502033045 13 0 0.0 4.8 0.00 0.00 0.00 31 1020.4
20260502031543 14 0 0.0 4.8 0.00 0.00 0.00 29 1020.0
20260502030048 14 283 3.2 11.3 0.00 0.00 0.00 28 1019.8
20260502024540 15 278 1.6 12.9 0.00 0.00 0.00 26 1019.6
20260502023043 15 288 4.8 12.9 0.00 0.00 0.00 24 1019.5
20260502021545 15 309 4.8 14.5 0.00 0.00 0.00 24 1019.4
20260502020041 16 293 9.7 17.7 0.00 0.00 0.00 23 1019.2
20260502014542 16 285 11.3 17.7 0.00 0.00 0.00 23 1019.1
20260502013049 16 294 8.0 22.5 0.00 0.00 0.00 23 1019.1
20260502011539 17 274 11.3 20.9 0.00 0.00 0.00 24 1019.0
20260502010043 17 219 11.3 22.5 0.00 0.00 0.00 23 1019.1
20260502004545 18 288 9.7 20.9 0.00 0.00 0.00 23 1019.1
20260502003040 18 286 9.7 20.9 0.00 0.00 0.00 24 1019.0
20260502001538 18 298 8.0 20.9 0.00 0.00 0.00 23 1019.1
20260502000044 19 311 9.7 24.1 0.00 0.00 0.00 23 1019.2
20260501234544 19 311 9.7 27.4 0.00 0.00 0.00 23 1019.2
20260501233041 19 296 12.9 24.1 0.00 0.00 0.00 22 1019.2
20260501231539 19 277 8.0 19.3 0.00 0.00 0.00 23 1019.3
20260501230045 19 327 11.3 22.5 0.00 0.00 0.00 22 1019.4
20260501224545 20 288 9.7 22.5 0.00 0.00 0.00 22 1019.5
20260501223044 20 344 9.7 22.5 0.00 0.00 0.00 22 1019.6
20260501221540 20 345 11.3 22.5 0.00 0.00 0.00 22 1019.6
20260501220046 20 305 9.7 20.9 0.00 0.00 0.00 21 1019.9
20260501214540 20 319 11.3 20.9 0.00 0.00 0.00 20 1020.0
20260501213048 20 332 11.3 20.9 0.00 0.00 0.00 22 1020.2
20260501211551 19 267 12.9 24.1 0.00 0.00 0.00 21 1020.2
20260501210044 20 304 12.9 22.5 0.00 0.00 0.00 23 1020.3
20260501204557 19 311 12.9 25.7 0.00 0.00 0.00 24 1020.4
20260501203038 19 326 9.7 22.5 0.00 0.00 0.00 23 1020.3
20260501201537 19 331 8.0 22.5 0.00 0.00 0.00 23 1020.2
20260501200045 19 360 6.4 20.9 0.00 0.00 0.00 23 1020.3
20260501194546 19 334 9.7 20.9 0.00 0.00 0.00 22 1020.5
20260501193042 18 273 8.0 25.7 0.00 0.00 0.00 22 1020.5
20260501191544 18 350 4.8 19.3 0.00 0.00 0.00 25 1020.7
20260501190044 18 313 6.4 20.9 0.00 0.00 0.00 23 1020.9
20260501184551 18 304 11.3 19.3 0.00 0.00 0.00 23 1020.9
20260501183050 18 9 8.0 20.9 0.00 0.00 0.00 23 1021.1
20260501181542 18 290 9.7 19.3 0.00 0.00 0.00 23 1021.1
20260501180042 18 50 9.7 20.9 0.00 0.00 0.00 25 1021.3
20260501174542 18 319 8.0 17.7 0.00 0.00 0.00 26 1021.3
20260501173049 18 308 6.4 20.9 0.00 0.00 0.00 24 1021.4
20260501171553 17 76 8.0 20.9 0.00 0.00 0.00 24 1021.4
20260501170042 17 22 4.8 16.1 0.00 0.00 0.00 24 1021.5